Current Version              Previous Version:    01  02  03  04  05  06  07  08  09  10  11  12  13  14  15  16  17  18  19  20  21  22  23  24  25  26  27  28  29  30  
   31  32  33  34  35  36  37  38  39  40  41  42  43  44  45  46  47  48  49  50  51  52  53  54  55  56  57  58  59  60  

[Printable]
449
ASUS44 KLUB 210910
RWRTX
WEST TEXAS WEATHER ROUNDUP
NATIONAL WEATHER SERVICE LUBBOCK TX
400 AM CDT TUE OCT 21 2014

NOTE: "FAIR" INDICATES FEW OR NO CLOUDS BELOW 12,000 FEET WITH NO
SIGNIFICANT WEATHER AND/OR OBSTRUCTIONS TO VISIBILITY.

TXZ004-006>008-010-012-014-016-OKZ002-211000-
TEXAS PANHANDLE/OKLAHOMA PANHANDLE

CITY           SKY/WX    TMP DP  RH WIND       PRES   REMARKS
AMARILLO       CLEAR     54  51  90 S8        30.11F
BORGER         CLEAR     62  52  69 SW8       30.08F
CANADIAN       CLEAR     57  55  94 W7        30.05S
DALHART        CLEAR     48  45  89 W5        30.12S
DUMAS          CLEAR     53  48  84 SW9       30.10S
GUYMON         CLEAR     50  49  96 CALM      30.06F
HEREFORD       CLEAR     51  50  95 CALM      30.13S
PAMPA          CLEAR     54  51  89 SW6       30.10F
PERRYTON       CLOUDY    53  52  96 SE6       30.06F VSB 1/4
$$

TXZ026-029-035-045-048-211000-
SOUTHERN PANHANDLE/SOUTH PLAINS/ROLLING PLAINS

CITY           SKY/WX    TMP DP  RH WIND       PRES   REMARKS
CHILDRESS      CLEAR     60  54  80 SW6       30.07S
SEMINOLE       PTCLDY    56  51  81 CALM      30.11S
LUBBOCK        PTCLDY    57  50  77 SW5       30.10F
PLAINVIEW      CLEAR     50  49  95 CALM      30.10F
SNYDER         CLEAR     58  52  81 S5        30.09S
$$

TXZ052-054-060>062-072-078-127-140-154-169-211000-
PERMIAN BASIN/CONCHO VALLEY/BIG COUNTRY/EDWARDS PLATEAU

CITY           SKY/WX    TMP DP  RH WIND       PRES   REMARKS
ABILENE        CLEAR     61  54  77 S6        30.07F
BIG SPRING     CLEAR     61  54  76 SE8       30.10S
BRADY          CLEAR     57  55  94 CALM      30.06S
BROWNWOOD      PTCLDY    55  55 100 CALM      30.06S
JUNCTION       CLEAR     55  52  89 NW5       30.07S
MIDLAND        PTCLDY    60  51  72 CALM      30.08S
ODESSA         PTCLDY    59  51  75 E5        30.09S
SAN ANGELO     CLEAR     56  50  80 CALM      30.06F
SONORA         PTCLDY    64  55  72 CALM      30.11S
SWEETWATER     CLEAR     62  55  77 S9        30.11S
WINK           MOCLDY    61  59  93 CALM      30.06S
$$

TXZ055-058-074-075-080-082-211000-
FAR WEST/SOUTHWEST MOUNTAINS/TRANS PECOS

CITY           SKY/WX    TMP DP  RH WIND       PRES   REMARKS
ALPINE         CLOUDY    59  56  91 CALM      30.17S
DRYDEN           N/A     65  62  90 N7        30.02F
EL PASO        PTCLDY    59  55  87 N5        30.07F
FORT STOCKTON  PTCLDY    60  58  92 S5        30.08R
GUADALUPE PASS CLOUDY    54  54 100 E10       30.16F FOG
MARFA          CLOUDY    55  55 100 CALM      30.14F
PECOS          MOCLDY    62  60  94 NE6         N/A
PRESIDIO       CLOUDY    65  61  86 N7        30.03S
$$

TXZ014-016-019-021>030-083-211000
TEXAS TECH WEST TEXAS MESONET/TEXAS PANHANDLE/NORTHERN SOUTH PLAINS

CITY           SKY/WX    TMP DP  RH WIND       PRES   REMARKS
ABERNATHY 5ENE   N/A     52  50  92 SW3       30.12S
AMARILLO 9NNE    N/A     52  49  89 S3        30.11S
AMARILLO 7SSE    N/A     50  49  95 SW6       30.12F
AMHERST 1NE      N/A     51  48  90 SW1       30.12F
BOOTLEG 11WNW    N/A     50  48  93 SW9       30.15F
CANADIAN 6E      N/A     60  55  83 SW2       30.05S
CAPROCK CYN SP   N/A     65  52  62 SW8       30.09S
CHILDRESS 2NNE   N/A     60  54  81 S6        30.06S
CLARENDON 2WSW   N/A     57  53  85 SW2       30.09F
CLAUDE 12SW      N/A     59  53  78 SW2       30.11F
DIMMITT 2NE      N/A     55  51  84 SW6       30.13S
FLOYDADA 2NNE    N/A     51  48  91 SW3       30.11S
FRIONA 2NE       N/A     50  48  93 SW2       30.14S
GOODLETT 3W      N/A     60  54  79 S2        30.05S
HART 3N          N/A     49  47  91 W3        30.13S
HEREFORD 2NW     N/A     48  45  88 W2        30.13S
MCLEAN 1E        N/A     59  53  81 SW6       30.07F
MEMPHIS 1NE      N/A     56  51  82 NW1       30.06F
MULESHOE 2SSW    N/A     48  47  97 SW5       30.12F
OLTON 6S         N/A     50  47  92 W2        30.12S
PALO DURO SP     N/A     56  51  84 SW5       30.13S
PAMPA 2E         N/A     57  52  83 S8        30.09F
PLAINVIEW 1S     N/A     51  50  95 CALM      30.11S
SILVERTON 7ESE   N/A     57  53  86 SW8       30.11S
TULIA 2ENE       N/A     57  52  84 W6        30.12S
TURKEY 2WSW      N/A     61  55  80 W8        30.07S
UMBARGER 3NNE    N/A     53  50  89 SW6       30.13S
$$

TXZ033>036-039>041-045>048-211000
TEXAS TECH WEST TEXAS MESONET/SOUTH PLAINS

CITY           SKY/WX    TMP DP  RH WIND       PRES   REMARKS
AIKEN 3WSW       N/A     51  50  97 W3        30.12S
ANDREWS 2NE      N/A     58  50  76 S3        30.10S
ANTON 6SSW       N/A     53  50  91 CALM      30.11F
BROWNFIELD 2S    N/A     54  49  84 S1        30.11S
DENVR CTY 7WNW   N/A     53  50  92 CALM      30.11S
GAIL 2ESE        N/A     53  50  89 CALM      30.08S
LAMESA 2SE       N/A     54  50  85 SE3       30.10S
LEVELLAND 4S     N/A     52  49  90 S3        30.11F
LUBBOCK 3WNW     N/A     54  49  83 S1        30.11S
MORTON 1ENE      N/A     51  49  93 W5        30.12F
ODONNELL 1N      N/A     59  50  73 S6        30.10S
PLAINS 3N        N/A     56  50  80 S3        30.12S
RALLS 1SE        N/A     55  51  86 W2        30.11S
REESE CENTER     N/A     53  49  87 S1        30.11S
SEMINOLE 2NNE    N/A     53  49  85 SE1       30.10F
SLATON 2NE       N/A     54  50  85 S8        30.10F
SNYDER 3E        N/A     58  53  83 S5        30.08S
SUNDOWN 8SW      N/A     51  48  89 W5        30.12S
TAHOKA 3NNE      N/A     51  48  91 S1        30.10S
WOLFFORTH 6SSW   N/A     50  49  94 S2        30.11S
$$

TXZ031-032-036>038-042>044-211000-
TEXAS TECH WEST TEXAS MESONET/ROLLING PLAINS

CITY           SKY/WX    TMP DP  RH WIND       PRES   REMARKS
ASPERMONT 3NE    N/A     57  53  86 S5        30.06S
FLUVANNA 3WNW    N/A     56  51  82 SE6       30.09S
GRAHAM 5SSW      N/A     62  51  65 S6        30.09F
GUTHRIE 10WSW    N/A     60  53  79 SW1       30.06S
HASKELL 1NW      N/A     59  52  77 S2        30.06S
JAYTON 1SSE      N/A     58  53  85 W3        30.07S
KNOX CITY 3NW    N/A     59  53  80 S3        30.06S
LK A HENRY 1NW   N/A     61  53  75 SW5       30.07F
NORTHFIELD 1S    N/A     58  55  87 SW3       30.06F
ODELL 4ENE       N/A     64  57  76 S7        30.05S
PADUCAH 10SW     N/A     61  54  76 SW8       30.06S
POST 1NE         N/A     60  51  72 SW3       30.08F
RRING SPRGS 3N   N/A     58  53  85 W6        30.08S
SEYMOUR 3NW      N/A     61  55  80 S5        30.05S
SPUR 1W          N/A     51  49  90 NW3       30.07F
WEINERT 2NNE     N/A     58  53  84 S5        30.06S
WHITE RVR 6NE    N/A     62  51  68 SW5       30.09S
$$

TXZ052-054-060>062-072-078-127-140-154-169-211000-
TEXAS TECH WEST TEXAS MESONET/PERMIAN BASIN/
CONCHO VALLEY/BIG COUNTRY/EDWARDS PLATEAU

CITY           SKY/WX    TMP DP  RH WIND       PRES   REMARKS
COYANOSA 2N      N/A     59  57  94 E3        30.07S
JUNCTION 1SSW    N/A     53  51  95 N1        30.07F
MERTZON 3NNE     N/A     51  47  85 NE1       30.09S
SAN ANGELO 7NW   N/A     55  50  81 NE1       30.07S
STRLNG CT 4WSW   N/A     51  47  87 SE2       30.09S
ST LAWRNCE 5SW   N/A     58  51  79 E5        30.08S
SWEETWATR 11SW   N/A     57  53  87 SE7       30.09F
WALL 1E          N/A     53  49  84 NW2       30.07F
$$

TXZ055-058-074-075-080-082-211000-
TEXAS TECH WEST TEXAS MESONET/FAR WEST/SOUTHWEST MOUNTAINS/TRANS PECOS

CITY           SKY/WX    TMP DP  RH WIND       PRES   REMARKS
PRSMN GAP BBNP   N/A     65  59  78 N9        30.03S
GUADLPE MTN NP   N/A     54  53  95 CALM      30.17S
$$